CAPE
425 747 766 816 675 550 432 361 284 195 232 402 538 615 949 1123 1152 1093 1183 1360 1545 1572 1596 1421 1242 1193 1171 1041 887 914 1046 1121 1161 1320 1495 1434 1394 1306 1231 1114 1023 1007 865
511 775 842 859 749 649 548 480 435 363 271 379 566 690 761 889 1063 1182 1227 1394 1551 1559 1529 1460 1448 1347 1199 1019 992 1013 1039 1184 1256 1295 1351 1368 1267 1248 1171 1036 1015 839 857
613 805 902 873 852 780 726 642 605 571 422 419 541 740 811 977 1157 1285 1385 1498 1603 1582 1508 1475 1422 1357 1170 1020 1031 1079 1122 1213 1277 1370 1358 1176 1079 1085 1132 982 904 925 942
674 841 952 918 906 886 852 786 746 741 613 521 573 733 907 1108 1294 1436 1541 1637 1654 1625 1596 1584 1535 1294 1127 1019 1088 1157 1180 1179 1286 1256 1094 995 999 1131 1117 974 952 975 896
682 847 951 995 999 966 885 865 854 854 738 606 606 712 969 1134 1300 1511 1578 1650 1698 1640 1771 1693 1479 1104 907 978 1105 1122 1121 1113 1070 983 914 872 881 1134 1124 1056 946 874 770
618 725 838 924 1029 1024 888 873 901 873 803 702 672 724 1004 1111 1293 1384 1333 1442 1651 1712 1803 1703 1190 845 864 939 1055 1038 938 923 854 782 875 818 814 1120 1094 979 823 692 580
536 644 681 706 782 922 914 931 957 901 832 822 761 819 1042 1164 1259 1236 1101 1195 1426 1659 1635 1549 1055 804 878 953 995 924 814 702 619 601 598 561 597 997 895 731 460 339 277
295 558 661 747 709 812 831 920 947 906 855 898 858 863 1041 1148 1222 1200 1171 1203 1272 1376 1446 1245 955 796 846 955 932 837 633 649 521 412 406 455 467 539 677 437 331 270 193
307 452 652 707 802 818 840 886 829 823 936 975 1015 912 1002 1111 1188 1212 1253 1235 1200 1194 1139 1023 878 815 822 940 783 697 525 531 446 367 373 419 389 64 222 264 232 120 27
262 366 463 618 762 815 922 918 761 763 1029 1050 1091 1041 980 1055 1154 1238 1245 1267 1100 1069 956 901 799 822 867 818 689 544 314 319 363 293 336 325 310 542 481 229 172 81 5
208 374 478 541 586 617 873 1068 1009 1042 1138 1139 1144 1164 1031 989 1044 1154 1222 1277 1031 976 803 783 723 783 707 425 438 377 242 114 212 225 238 290 117 469 501 271 112 27 0
33 210 428 490 485 567 732 1055 1193 1247 1148 1008 1141 1171 1096 947 924 966 1090 1238 1005 895 696 639 581 653 447 229 198 258 240 59 112 149 200 238 315 412 435 223 63 3 13
30 141 308 368 430 527 634 782 868 1076 1007 836 861 895 1128 1013 901 843 784 1009 940 732 567 518 468 336 235 114 35 15 44 73 65 142 212 254 241 411 459 174 30 7 9
498 166 270 376 354 444 436 485 564 670 756 691 747 803 931 881 769 680 551 597 718 565 403 319 217 123 46 9 0 0 0 0 2 73 132 221 221 338 347 137 21 3 4
896 745 471 406 300 312 295 339 329 408 519 529 609 776 906 760 623 577 486 382 266 258 323 155 61 31 0 0 0 0 0 0 0 54 72 133 113 204 305 140 21 4 0
1188 1243 1007 475 312 324 313 223 199 250 295 313 385 618 762 628 553 491 439 335 163 32 47 35 0 10 0 0 0 1 0 0 0 9 50 89 45 94 183 139 57 10 0
1440 1661 1503 1122 671 364 293 268 213 212 242 228 235 384 560 554 505 452 410 327 178 28 0 0 0 0 0 0 0 0 0 0 0 0 1 36 56 69 87 109 70 16 7
1531 1803 1955 1840 1388 908 580 498 407 357 312 263 261 256 390 474 429 415 414 319 159 67 22 7 0 0 0 0 0 0 0 0 0 0 0 3 37 47 50 80 74 17 13
1276 1640 1898 2044 1886 1643 1278 1034 935 810 655 602 510 474 433 515 572 441 400 313 215 235 106 35 12 0 0 0 0 0 0 0 0 2 10 10 48 24 51 72 58 24 12
0 385 1039 1666 1888 1908 1725 1314 1312 1104 1048 942 777 913 837 759 729 625 428 301 264 210 164 65 44 2 1 1 1 1 1 5 9 10 12 35 30 14 27 42 28 18 15
0 0 282 634 1310 1896 1769 1582 1479 1355 1234 1095 1088 1091 1079 990 839 595 399 344 229 304 181 89 70 34 1 2 4 5 1 6 6 12 27 34 13 3 12 12 9 6 14
0 0 0 210 591 1387 1772 1691 1547 1474 1105 1103 998 985 1055 1001 815 486 403 364 310 324 125 83 106 57 33 4 19 6 6 7 0 8 20 6 10 1 0 1 8 6 10
0 0 0 2 452 1244 1866 1658 1218 915 769 659 783 1043 957 756 592 470 343 293 268 256 115 63 54 78 39 18 13 15 5 3 4 4 4 8 5 2 0 0 3 9 14
0 0 0 0 546 1404 1762 1618 1202 1362 1242 1003 902 889 722 539 378 373 290 248 211 176 157 76 47 28 30 13 16 8 0 2 2 3 4 1 1 6 0 0 0 7 16
0 0 0 0 0 38 853 1573 1318 1222 1011 680 724 694 632 477 361 298 251 152 203 185 174 93 34 2 9 8 6 4 7 2 0 5 8 2 1 1 1 0 0 6 15
0 0 0 0 0 0 0 123 1267 1272 1048 737 619 527 463 333 274 247 196 129 172 155 113 57 20 3 1 1 3 0 1 1 5 1 1 4 0 0 0 1 2 2 7
CIN
-563 -443 -407 -361 -357 -330 -294 -289 -306 -316 -288 -236 -199 -161 -119 -94 -79 -73 -59 -36 -23 -10 -4 -6 -18 -23 -21 -23 -34 -34 -34 -36 -34 -18 -1 -0 0 0 0 -0 -0 -0 -3
-569 -490 -445 -368 -341 -329 -289 -274 -265 -265 -272 -234 -196 -163 -132 -106 -87 -73 -61 -42 -22 -9 -8 -11 -11 -15 -23 -32 -29 -32 -31 -24 -19 -14 -2 -0 -2 0 0 -3 -1 -2 -2
-551 -509 -438 -390 -344 -320 -286 -252 -237 -229 -235 -226 -186 -151 -128 -103 -84 -70 -56 -33 -16 -8 -12 -16 -21 -27 -32 -37 -30 -26 -24 -19 -15 -2 -0 -2 -3 -4 -0 -1 -3 -2 0
-576 -530 -443 -389 -359 -325 -298 -256 -227 -204 -212 -209 -168 -133 -106 -90 -71 -58 -46 -24 -15 -9 -5 -10 -14 -29 -39 -43 -31 -30 -29 -22 -12 -13 -16 -13 -6 -1 0 -1 -1 0 -0
-574 -540 -473 -384 -344 -335 -317 -273 -229 -200 -204 -211 -161 -121 -90 -77 -60 -39 -30 -19 -8 -8 0 -3 -14 -43 -56 -47 -37 -34 -25 -17 -20 -23 -21 -14 -7 0 0 0 -0 -0 -2
-578 -553 -505 -413 -335 -311 -318 -279 -242 -224 -206 -207 -168 -122 -85 -72 -55 -42 -43 -36 -8 -2 -0 -0 -31 -65 -54 -45 -38 -28 -28 -19 -21 -26 -24 -29 -15 -0 0 0 -2 -3 -5
-576 -566 -523 -482 -407 -338 -314 -273 -252 -241 -238 -184 -181 -109 -78 -65 -54 -50 -56 -54 -26 -4 -2 -4 -37 -54 -40 -35 -30 -30 -27 -28 -34 -33 -28 -23 -16 0 -0 -2 -13 -18 -15
-599 -572 -548 -486 -441 -376 -338 -285 -265 -268 -263 -195 -178 -122 -78 -66 -54 -49 -50 -48 -37 -19 -11 -21 -40 -48 -43 -32 -29 -27 -34 -28 -40 -38 -23 -22 -10 -7 -0 -9 -13 -14 -20
-606 -586 -553 -495 -425 -384 -338 -303 -291 -281 -255 -212 -147 -142 -93 -70 -50 -42 -42 -44 -41 -36 -30 -36 -44 -42 -41 -28 -37 -32 -35 -33 -28 -41 -28 -19 -17 -79 -12 -9 -12 -12 -23
-625 -604 -586 -524 -439 -406 -343 -300 -305 -283 -242 -206 -153 -129 -112 -80 -56 -37 -37 -37 -45 -45 -44 -48 -50 -42 -33 -40 -41 -41 -65 -58 -41 -44 -49 -24 -23 -0 -0 -11 -13 -14 -48
-617 -597 -577 -549 -495 -446 -361 -290 -261 -229 -203 -185 -160 -127 -118 -101 -73 -42 -36 -34 -45 -49 -55 -57 -53 -42 -39 -69 -65 -63 -68 -91 -62 -64 -63 -49 -59 -7 0 -2 -13 -13 0
-649 -632 -567 -553 -534 -470 -386 -301 -245 -200 -194 -195 -161 -146 -126 -116 -89 -71 -44 -24 -36 -46 -56 -64 -64 -49 -61 -96 -101 -79 -72 -116 -81 -59 -52 -48 -26 -8 -0 -18 -9 -28 -5
-578 -639 -586 -556 -546 -495 -414 -364 -335 -256 -233 -224 -197 -191 -135 -116 -91 -79 -64 -27 -22 -36 -55 -64 -77 -92 -91 -115 -151 -95 -105 -101 -87 -54 -45 -37 -25 -10 0 -0 -19 -3 -5
-389 -498 -565 -550 -544 -529 -493 -436 -410 -365 -309 -271 -231 -202 -166 -148 -127 -101 -100 -74 -40 -49 -62 -76 -102 -119 -160 -112 0 0 0 0 -11 -69 -49 -28 -22 -10 -0 -6 -20 -4 -6
-267 -340 -440 -526 -515 -532 -512 -484 -466 -426 -388 -332 -272 -217 -173 -180 -173 -139 -117 -107 -93 -70 -60 -92 -124 -141 0 0 0 0 0 0 0 -71 -65 -37 -21 -6 -4 -1 -16 -1 0
-189 -234 -342 -415 -484 -478 -468 -503 -487 -459 -446 -402 -344 -266 -212 -217 -206 -174 -142 -132 -130 -159 -144 -135 0 -164 0 0 0 -59 0 0 0 -74 -66 -42 -27 -11 -4 -1 -5 -0 0
-163 -187 -240 -303 -389 -415 -431 -460 -478 -463 -450 -430 -402 -329 -263 -243 -232 -208 -167 -153 -135 -179 0 0 0 0 0 0 0 -1 0 0 0 0 -6 -38 -27 -19 -3 -2 -2 -24 0
-131 -147 -212 -239 -278 -318 -381 -381 -399 -409 -415 -422 -409 -372 -315 -269 -257 -233 -181 -176 -153 -158 -181 -183 0 0 0 0 0 0 0 0 0 0 -8 -43 -25 -26 -11 -2 -8 -17 -1
-77 -95 -140 -194 -203 -230 -272 -310 -307 -316 -340 -349 -353 -332 -311 -269 -231 -239 -207 -188 -158 -97 -114 -143 -161 0 0 0 0 0 0 0 0 -36 -59 -24 -14 -6 -7 -6 -7 -5 -3
0 -155 -130 -167 -184 -217 -215 -224 -209 -242 -231 -264 -289 -263 -241 -234 -215 -203 -214 -204 -164 -112 -89 -111 -99 0 0 0 0 0 0 -51 -43 -22 -22 -7 -1 -2 -11 -15 -6 -7 -7
0 0 -190 -173 -180 -207 -187 -204 -179 -221 -228 -229 -220 -225 -201 -186 -185 -212 -229 -198 -184 -116 -110 -113 -90 -101 -9 -32 -29 -16 0 -20 -20 -20 -18 -8 -3 -34 -24 -17 -8 -10 -11
0 0 0 -236 -162 -202 -209 -233 -213 -234 -266 -252 -239 -204 -179 -170 -187 -238 -229 -207 -170 -110 -130 -120 -81 -101 -91 -25 -5 -12 -6 -6 -0 -6 -27 -4 -8 -33 -15 -9 -13 -14 -15
0 0 0 -50 -201 -187 -175 -197 -211 -237 -265 -236 -212 -169 -191 -211 -215 -239 -252 -229 -194 -146 -156 -148 -108 -84 -74 -18 -12 -13 -15 -7 0 -3 -8 0 -12 -13 -6 -5 -14 -16 -16
0 0 0 0 -280 -151 -89 -83 -137 -196 -201 -205 -212 -269 -265 -278 -261 -247 -256 -238 -213 -187 -149 -154 -131 -97 -68 -14 -7 -14 -10 -19 -4 -2 -0 -1 0 -25 0 0 -0 -20 -26
0 0 0 0 0 -431 -186 -72 -115 -112 -145 -229 -243 -261 -264 -246 -276 -269 -251 -265 -223 -202 -150 -153 -128 -1 -19 -23 -20 -17 -16 -17 0 -8 -1 -1 0 -38 0 0 0 -33 -45
0 0 0 0 0 0 0 -325 -82 -101 -121 -168 -193 -194 -241 -229 -225 -232 -240 -260 -238 -226 -228 -192 -169 -33 -30 -30 -18 0 -9 -2 -2 -7 0 -17 -2 0 0 -40 -39 -49 -68
Wind_Speed
9 13 12 12 13 12 12 12 13 14 14 15 16 16 17 17 17 17 16 15 14 14 13 13 12 10 10 9 9 9 8 8 8 8 9 10 11 10 11 12 13 13 14
13 14 14 13 11 11 11 11 12 12 14 14 15 16 16 17 17 17 16 15 14 14 13 13 12 12 11 10 9 9 8 8 8 7 7 8 9 10 10 11 11 12 12
14 14 12 12 11 10 10 10 10 11 12 13 14 15 16 16 17 16 16 15 14 13 13 12 12 11 11 11 10 9 8 7 7 7 7 6 7 9 9 10 10 11 11
14 12 10 10 10 9 10 10 9 11 11 11 12 14 15 15 15 15 15 14 13 13 12 12 11 11 10 10 10 10 8 7 6 5 5 5 6 7 8 9 10 11 11
10 10 9 9 8 8 9 10 9 9 10 10 11 12 14 14 14 14 14 13 13 12 11 11 10 11 11 10 10 10 10 8 7 6 5 5 4 7 8 8 9 10 9
7 8 8 9 8 8 8 8 9 9 9 9 10 10 12 13 13 13 12 12 12 12 11 11 11 11 11 10 11 11 9 8 7 6 5 4 4 6 7 7 8 9 8
5 5 7 8 8 8 8 8 8 9 9 9 9 9 10 11 11 12 11 11 11 11 11 10 11 10 10 10 11 10 9 7 6 5 5 4 4 5 5 6 7 7 7
6 6 6 7 8 7 8 7 8 9 9 8 9 8 9 9 10 10 10 9 10 10 10 10 9 10 9 9 9 9 9 7 6 6 5 4 3 3 3 4 5 6 6
3 4 5 6 7 7 7 7 8 9 9 8 8 8 8 8 9 9 10 9 9 9 9 9 9 9 8 8 8 7 8 7 6 5 4 4 3 5 6 5 4 5 6
4 3 4 4 5 6 6 7 7 7 8 8 8 8 8 8 8 8 9 9 8 8 8 8 8 7 7 7 8 8 8 8 6 4 4 2 2 1 2 4 5 5 6
8 6 3 4 4 4 5 6 5 5 6 7 8 8 7 6 7 8 9 9 8 8 7 7 7 7 6 7 6 6 6 8 6 4 2 0 3 1 3 4 5 6 5
8 9 7 5 4 3 3 3 3 3 3 4 6 7 6 6 5 7 8 10 9 8 7 6 5 4 4 6 5 4 3 6 6 4 2 3 3 5 2 3 3 5 3
11 10 9 8 6 5 3 2 1 1 2 2 4 5 5 5 4 5 6 8 8 8 5 4 3 2 3 4 4 4 4 3 4 5 3 4 4 4 3 2 3 5 3
12 11 11 10 9 7 5 4 2 2 1 1 3 4 4 4 4 3 5 6 7 7 5 3 1 1 1 2 2 2 4 6 3 2 4 2 4 4 3 4 4 3 2
13 11 11 11 11 10 9 7 6 4 4 3 2 2 3 2 3 3 3 5 6 7 5 3 2 2 1 1 3 3 4 6 5 6 5 3 4 5 4 5 4 5 4
15 13 11 12 12 12 12 11 9 8 7 5 4 3 3 1 2 3 2 4 5 7 6 4 4 4 3 3 4 6 6 6 9 10 10 7 7 7 9 8 6 7 8
20 16 13 12 11 11 12 12 12 11 10 8 7 5 4 3 2 2 2 3 4 5 5 4 2 3 4 5 5 5 7 8 10 14 15 18 11 10 12 12 9 6 7
24 22 16 16 15 13 12 12 12 12 12 11 9 8 6 5 3 2 2 2 2 3 4 5 4 4 5 6 7 7 6 7 12 15 17 19 13 14 19 21 8 6 10
24 24 23 20 18 17 16 14 13 13 12 12 12 10 8 7 5 3 3 2 2 2 3 4 4 5 6 7 8 9 8 8 13 16 17 13 16 14 18 19 9 8 10
23 22 22 23 21 20 20 20 17 16 15 14 13 11 10 9 7 5 5 4 3 3 4 4 4 5 7 7 9 11 10 10 11 17 16 14 15 19 19 13 10 12 9
32 33 28 26 26 23 22 21 20 18 18 18 16 15 12 11 9 7 6 5 5 4 4 4 5 5 7 7 11 12 13 11 12 14 14 12 23 26 19 13 12 18 14
29 33 34 30 27 22 21 21 22 20 22 22 18 14 11 11 11 10 8 7 6 5 5 5 4 8 8 6 11 13 17 18 15 14 12 17 26 27 21 15 16 17 17
30 31 32 29 26 23 20 21 22 20 22 22 20 17 15 14 14 12 11 9 7 6 6 6 6 7 8 8 8 12 17 20 16 15 13 16 27 25 23 18 19 19 17
28 26 25 24 24 24 22 21 21 20 22 23 22 21 18 14 14 14 13 11 10 9 8 8 8 9 9 10 10 10 16 17 19 23 16 19 26 27 25 18 19 21 20
23 22 22 21 21 23 25 22 21 24 26 28 26 22 19 18 16 17 15 14 13 12 11 10 9 8 9 11 11 14 12 14 21 18 22 22 29 27 27 21 18 19 21
21 20 21 21 22 23 25 27 24 24 26 25 25 30 23 20 19 19 19 18 16 15 13 11 11 10 10 12 12 12 13 17 15 11 22 18 26 28 27 22 18 18 20
Wind_Direction
100 119 113 106 97 87 84 82 80 79 79 78 76 75 77 81 83 85 84 79 75 70 67 61 54 43 37 28 21 25 27 29 35 45 52 58 64 59 58 59 59 58 62
117 123 121 113 99 88 85 83 81 79 81 81 80 81 82 84 88 89 86 82 77 73 70 62 55 49 41 38 28 23 28 34 42 42 50 57 62 66 62 59 58 59 58
124 122 121 114 105 92 90 88 83 83 83 83 83 85 88 91 91 91 87 84 79 74 69 62 58 54 55 52 44 33 31 37 43 51 49 39 49 67 65 63 62 62 60
125 122 119 117 109 100 95 96 89 88 84 84 87 90 93 94 93 92 89 85 81 76 69 65 53 53 54 55 53 51 47 41 40 39 40 41 46 72 74 70 68 64 63
122 122 120 120 113 104 101 102 98 92 89 89 90 94 98 96 97 94 90 83 78 76 68 58 53 58 60 60 62 65 62 50 40 34 19 27 45 77 79 77 73 70 63
127 122 123 119 114 110 105 104 101 98 94 95 93 97 101 101 99 97 92 84 81 77 70 59 61 67 62 63 67 68 61 58 52 33 24 39 57 88 86 78 76 70 59
140 130 127 124 117 115 108 106 104 103 100 98 95 97 101 102 101 101 95 87 82 82 75 69 69 67 64 64 69 60 60 48 34 30 8 26 67 98 97 88 72 57 45
142 135 132 132 124 120 114 111 109 108 105 103 102 102 103 104 104 105 101 90 88 86 82 70 70 70 68 69 66 69 53 50 28 25 346 5 64 74 152 92 63 51 34
164 142 129 126 126 121 115 115 114 113 109 106 108 107 108 106 109 111 110 102 97 94 89 82 78 73 73 60 59 67 46 53 24 32 12 348 68 70 273 311 348 357 17
235 177 142 132 130 120 116 120 116 112 110 110 111 111 111 110 114 115 119 115 107 104 100 91 85 78 71 56 71 86 57 47 50 27 59 9 97 47 26 22 325 342 356
251 242 215 165 146 126 118 120 113 106 106 111 112 115 112 108 113 119 126 129 121 117 112 103 95 87 54 43 54 77 63 40 46 31 71 12 292 352 67 74 324 325 351
222 235 240 214 187 155 128 123 115 100 98 102 111 113 108 109 113 119 131 139 135 133 126 122 111 86 54 41 40 44 44 10 16 12 312 221 256 281 325 51 352 324 4
217 228 225 216 211 186 179 159 135 85 110 113 119 113 110 103 107 112 125 139 138 141 131 127 117 99 76 59 52 26 4 12 358 358 62 181 251 266 283 323 65 308 324
222 224 223 221 211 211 223 218 206 200 214 185 143 128 114 105 117 120 131 141 146 147 144 141 148 148 79 46 42 18 355 345 353 11 335 181 224 218 235 268 278 292 302
233 230 228 231 229 222 225 229 215 223 230 248 194 164 136 118 127 128 137 144 149 150 151 158 174 192 244 312 322 320 314 320 323 320 316 247 233 234 227 230 236 263 270
245 243 237 237 242 237 235 228 222 229 232 232 229 211 181 156 137 141 148 158 163 162 163 172 188 199 248 284 300 306 305 303 307 304 308 297 273 254 231 224 226 255 260
253 251 239 240 236 229 230 237 234 238 241 232 232 223 212 208 181 159 163 173 178 176 176 183 242 276 279 290 285 289 298 300 302 298 300 299 279 258 252 234 244 242 247
258 258 256 258 248 242 237 242 244 242 242 243 239 240 222 227 219 217 216 199 202 204 198 201 225 269 281 278 285 286 284 293 299 300 299 296 277 264 254 249 232 223 249
250 257 259 255 249 248 253 255 258 257 251 254 254 248 232 234 237 240 247 255 224 240 233 223 253 270 281 288 289 293 290 285 296 301 301 299 277 248 253 242 229 232 246
253 253 251 253 252 251 257 262 262 262 262 262 254 247 242 241 241 244 266 263 261 272 276 260 264 279 294 294 298 299 296 297 294 299 301 302 268 246 245 242 245 253 228
267 264 258 256 257 255 254 253 255 250 252 258 263 261 246 244 242 246 265 265 266 258 265 263 285 281 294 295 310 303 302 295 293 294 295 292 261 246 245 243 249 254 250
271 270 265 259 256 244 244 244 258 254 259 257 260 259 240 241 242 248 255 263 260 271 278 270 270 309 303 284 310 313 311 305 298 291 287 283 260 246 247 247 251 253 251
273 277 272 265 258 252 243 254 265 262 264 261 258 256 252 257 255 252 257 261 254 263 273 276 275 287 297 295 283 310 313 306 306 298 282 278 264 248 248 248 251 252 250
274 276 279 274 271 264 259 256 255 247 251 253 256 258 253 247 253 253 253 254 255 263 269 280 286 286 294 295 297 280 302 313 304 302 287 276 255 251 245 247 250 252 252
278 281 285 283 280 277 269 258 256 261 267 270 267 260 255 253 253 259 258 253 254 261 267 275 282 276 278 293 292 305 286 285 297 305 295 273 253 245 245 245 248 253 254
284 286 287 288 287 284 277 273 265 261 263 265 270 264 262 264 265 264 263 256 257 260 264 268 278 284 284 291 291 288 290 291 286 280 287 273 250 244 242 245 248 255 257